User: anonymous   Login
Location: Unspecified
(0.0000°N, 0.0000°E)
Time: 09:09:06
(UTC+02:00)
Language:

Cosmos 540 Rocket - Orbit

View from above orbital plane
View from above orbital plane
View from above satellite
View from above satellite

Ground track
Ground track

The orbit data is extracted from the following two-line orbital elements,

1 06324U 72104B   16120.52760856  .00000018  00000-0  13111-4 0  9998
2 06324  74.0754 152.5201 0008402  31.6792 328.4869 14.43295565275897
Epoch (UTC): 29 April 2016 12:39:45
Eccentricity: 0.0008402
inclination: 74.0754°
perigee height: 741 km
apogee height: 753 km
right ascension of ascending node: 152.5201°
argument of perigee: 31.6792°
revolutions per day: 14.43295565
mean anomaly at epoch: 328.4869°
orbit number at epoch: 27589

The dashed part of the orbit path shows where the satellite is in the earth's shadow,  

DLR